Terminal Aerodrome Forecast
Issued by NWS Sioux Falls, SD

Home | Current Version | Previous Version | Graphics & Text | Print | Product List | Glossary On
Versions: 1 2 3 4 5 6 7 8 9 10 11 12 13 14 15 16 17 18 19 20 21 22
914
FTUS43 KFSD 082048 AAA
TAFFSD
TAF AMD
KFSD 082048Z 0821/0918 34021G30KT 6SM -SN BLSN BKN025 OVC035
     FM082200 33021G28KT P6SM SCT035 SCT150
     FM090000 33014G22KT P6SM SCT150
     FM091200 34012KT P6SM BKN250=

USA.gov is the U.S. government's official web portal to all federal, state and local government web resources and services.